TimeCEST,TemperatureF,Dew PointF,Humidity,Sea Level PressureIn,VisibilityMPH,Wind Direction,Wind SpeedMPH,Gust SpeedMPH,PrecipitationIn,Events,Conditions,WindDirDegrees,DateUTC
12:00 AM,60.8,59.0,94,30.18,6.2,Calm,Calm,-,N/A,,Partly Cloudy,0,2012-10-07 22:00:00
12:30 AM,59.0,57.2,94,30.18,6.2,Calm,Calm,-,N/A,,Partly Cloudy,0,2012-10-07 22:30:00
1:00 AM,59.0,57.2,94,30.18,6.2,Calm,Calm,-,N/A,,Partly Cloudy,0,2012-10-07 23:00:00
1:30 AM,59.0,57.2,94,30.18,5.6,Calm,Calm,-,N/A,,Partly Cloudy,0,2012-10-07 23:30:00
2:00 AM,57.2,55.4,94,30.18,5.6,Calm,Calm,-,N/A,,Partly Cloudy,0,2012-10-08 00:00:00
2:30 AM,55.4,55.4,100,30.18,5.6,Calm,Calm,-,N/A,,Partly Cloudy,0,2012-10-08 00:30:00
3:00 AM,57.2,55.4,94,30.15,5.6,Calm,Calm,-,N/A,,Partly Cloudy,0,2012-10-08 01:00:00
3:30 AM,57.2,55.4,94,30.15,5.6,Calm,Calm,-,N/A,,Partly Cloudy,0,2012-10-08 01:30:00
4:00 AM,57.2,55.4,94,30.15,5.6,Calm,Calm,-,N/A,,Partly Cloudy,0,2012-10-08 02:00:00
4:30 AM,57.2,55.4,94,30.12,5.6,Calm,Calm,-,N/A,,Partly Cloudy,0,2012-10-08 02:30:00
5:00 AM,55.4,55.4,100,30.12,6.2,Calm,Calm,-,N/A,,Partly Cloudy,0,2012-10-08 03:00:00
5:30 AM,57.2,55.4,94,30.12,6.2,NNE,2.3,-,N/A,,Partly Cloudy,30,2012-10-08 03:30:00
6:00 AM,55.4,53.6,94,30.12,6.2,Calm,Calm,-,N/A,,Partly Cloudy,0,2012-10-08 04:00:00
6:30 AM,55.4,53.6,94,30.12,6.2,Calm,Calm,-,N/A,,Partly Cloudy,0,2012-10-08 04:30:00
7:00 AM,53.6,53.6,100,30.12,5.0,Calm,Calm,-,N/A,,Partly Cloudy,0,2012-10-08 05:00:00
7:30 AM,53.6,51.8,94,30.12,5.0,Calm,Calm,-,N/A,,Partly Cloudy,0,2012-10-08 05:30:00
8:00 AM,53.6,53.6,100,30.12,6.2,Calm,Calm,-,N/A,,Partly Cloudy,0,2012-10-08 06:00:00
8:30 AM,53.6,51.8,94,30.12,4.3,Calm,Calm,-,N/A,,Partly Cloudy,0,2012-10-08 06:30:00
9:00 AM,55.4,53.6,94,30.12,3.7,Calm,Calm,-,N/A,,Partly Cloudy,0,2012-10-08 07:00:00
9:30 AM,59.0,57.2,94,30.12,4.3,Variable,1.2,-,N/A,,Partly Cloudy,0,2012-10-08 07:30:00
10:00 AM,59.0,59.0,100,30.12,5.6,Variable,2.3,-,N/A,,Partly Cloudy,0,2012-10-08 08:00:00
10:30 AM,60.8,59.0,94,30.12,6.2,NE,1.2,-,N/A,,Partly Cloudy,40,2012-10-08 08:30:00
11:00 AM,62.6,59.0,88,30.12,-9999.0,Calm,Calm,-,N/A,,Clear,0,2012-10-08 09:00:00
11:30 AM,66.2,60.8,83,30.12,-9999.0,Variable,2.3,-,N/A,,Clear,0,2012-10-08 09:30:00
12:00 PM,69.8,59.0,68,30.12,-9999.0,SW,8.1,-,N/A,,Clear,220,2012-10-08 10:00:00
12:30 PM,73.4,59.0,61,30.12,-9999.0,WSW,9.2,-,N/A,,Clear,240,2012-10-08 10:30:00
1:00 PM,75.2,59.0,57,30.12,-9999.0,SW,11.5,-,N/A,,Clear,230,2012-10-08 11:00:00
1:30 PM,75.2,57.2,53,30.09,-9999.0,WSW,12.7,-,N/A,,Clear,240,2012-10-08 11:30:00
2:00 PM,78.8,55.4,44,30.09,-9999.0,SW,10.4,-,N/A,,Clear,230,2012-10-08 12:00:00
2:30 PM,80.6,55.4,42,30.09,-9999.0,SSW,6.9,-,N/A,,Clear,210,2012-10-08 12:30:00
3:00 PM,80.6,50.0,34,30.06,-9999.0,North,12.7,-,N/A,,Clear,350,2012-10-08 13:00:00
3:30 PM,80.6,48.2,32,30.06,6.2,West,9.2,-,N/A,,Partly Cloudy,280,2012-10-08 13:30:00
4:00 PM,82.4,48.2,30,30.06,6.2,West,8.1,-,N/A,,Partly Cloudy,260,2012-10-08 14:00:00
4:30 PM,82.4,59.0,45,30.06,6.2,West,6.9,-,N/A,,Scattered Clouds,270,2012-10-08 14:30:00
5:00 PM,73.4,60.8,65,30.06,6.2,NE,15.0,-,N/A,,Scattered Clouds,40,2012-10-08 15:00:00
5:30 PM,71.6,59.0,64,30.09,6.2,NNE,17.3,-,N/A,,Scattered Clouds,30,2012-10-08 15:30:00
6:00 PM,69.8,57.2,64,30.09,6.2,NNE,17.3,-,N/A,,Partly Cloudy,30,2012-10-08 16:00:00
6:30 PM,68.0,57.2,68,30.09,6.2,NNE,12.7,-,N/A,,Partly Cloudy,30,2012-10-08 16:30:00
7:00 PM,66.2,59.0,78,30.12,6.2,NNE,13.8,-,N/A,,Scattered Clouds,30,2012-10-08 17:00:00
7:30 PM,66.2,60.8,83,30.12,6.2,NNE,11.5,-,N/A,,Scattered Clouds,30,2012-10-08 17:30:00
8:00 PM,66.2,60.8,83,30.12,6.2,NNE,11.5,-,N/A,,Scattered Clouds,20,2012-10-08 18:00:00
8:30 PM,64.4,59.0,83,30.15,6.2,NE,10.4,-,N/A,,Scattered Clouds,40,2012-10-08 18:30:00
9:00 PM,64.4,59.0,83,30.15,6.2,NE,10.4,-,N/A,,Scattered Clouds,40,2012-10-08 19:00:00
9:30 PM,62.6,59.0,88,30.15,6.2,NE,8.1,-,N/A,,Scattered Clouds,50,2012-10-08 19:30:00
10:00 PM,62.6,59.0,88,30.15,6.2,NNE,3.5,-,N/A,,Mostly Cloudy,20,2012-10-08 20:00:00
10:30 PM,62.6,59.0,88,30.15,6.2,Variable,2.3,-,N/A,,Mostly Cloudy,0,2012-10-08 20:30:00
11:00 PM,60.8,57.2,88,30.15,6.2,Calm,Calm,-,N/A,,Scattered Clouds,0,2012-10-08 21:00:00
11:30 PM,59.0,57.2,94,30.15,6.2,East,2.3,-,N/A,,Mostly Cloudy,90,2012-10-08 21:30:00